CDT,Max TemperatureF,Mean TemperatureF,Min TemperatureF,Max Dew PointF,MeanDew PointF,Min DewpointF,Max Humidity, Mean Humidity, Min Humidity, Max Sea Level PressureIn, Mean Sea Level PressureIn, Min Sea Level PressureIn, Max VisibilityMiles, Mean VisibilityMiles, Min VisibilityMiles, Max Wind SpeedMPH, Mean Wind SpeedMPH, Max Gust SpeedMPH,PrecipitationIn, CloudCover, Events, WindDirDegrees
2013-7-1,78,66,55,57,51,45,77,58,42,30.14,30.11,30.06,10,10,10,14,8,20,0.00,0,,30
2013-7-2,70,62,55,54,51,43,93,70,42,30.14,30.12,30.10,10,10,10,15,7,21,0.02,3,Rain,31
2013-7-3,64,62,59,63,59,55,100,93,73,30.11,30.07,30.04,10,6,1,10,4,,0.44,8,Rain,34
2013-7-4,77,68,60,64,62,59,100,87,56,30.09,30.06,30.02,10,5,1,14,5,21,0.00,3,,190
2013-7-5,84,72,62,65,60,54,97,69,46,30.06,30.03,30.00,10,9,4,21,6,26,0.00,0,,203
2013-7-6,82,70,59,65,63,57,100,75,51,30.04,30.01,29.96,10,8,3,13,5,20,0.00,0,,196
2013-7-7,87,74,64,71,68,64,100,79,63,29.97,29.94,29.91,10,8,4,9,5,,0.00,2,Rain,213
2013-7-8,84,74,64,73,69,64,100,90,67,30.00,29.95,29.88,10,6,0,15,7,18,0.47,4,Fog-Rain-Thunderstorm,255
2013-7-9,81,72,62,74,67,61,100,94,79,30.01,29.93,29.78,10,5,0,13,3,16,0.13,6,Fog-Rain-Thunderstorm,171
2013-7-10,77,69,61,71,62,56,94,73,52,30.02,29.89,29.80,10,10,10,15,8,23,0.00,3,,302
2013-7-11,75,64,54,61,56,52,100,76,53,30.13,30.10,30.02,10,10,9,10,4,18,0.00,0,,1
2013-7-12,80,65,51,60,54,47,100,71,32,30.17,30.14,30.11,10,10,10,8,1,,0.00,0,,142
2013-7-13,81,68,54,63,58,54,100,71,43,30.18,30.16,30.11,10,10,7,13,3,21,0.00,0,,185
2013-7-14,84,70,55,70,63,55,100,80,53,30.24,30.22,30.19,10,8,0,12,2,16,0.00,0,Fog,162
2013-7-15,87,74,62,70,66,62,100,83,55,30.29,30.27,30.23,10,7,1,9,1,,0.00,1,,111
2013-7-16,90,79,69,77,73,69,100,82,59,30.28,30.25,30.21,10,8,2,12,3,,0.00,3,,191
2013-7-17,93,82,73,76,74,70,100,79,48,30.27,30.21,30.14,10,10,7,9,5,,0.03,1,Rain-Thunderstorm,238
2013-7-18,93,82,72,75,72,70,97,69,47,30.15,30.01,29.86,10,10,10,18,7,25,0.00,0,,234
2013-7-19,93,82,72,72,68,64,76,61,46,29.84,29.75,29.69,10,10,10,21,13,31,0.00,0,,259
2013-7-20,78,69,60,66,59,50,97,73,47,29.99,29.90,29.81,10,10,10,16,6,22,0.00,1,,30
2013-7-21,75,66,60,63,58,53,100,81,59,30.03,29.97,29.91,10,8,2,13,5,,0.74,5,Rain,92
2013-7-22,82,70,57,73,66,57,100,91,71,29.91,29.82,29.68,10,6,1,14,4,21,0.01,4,Rain,191
2013-7-23,77,65,52,70,57,51,97,70,53,30.02,29.84,29.66,10,10,10,16,11,23,0.00,4,,359
2013-7-24,70,59,48,53,51,48,100,75,51,30.10,30.06,30.01,10,10,10,8,3,,0.00,1,Rain,26
2013-7-25,78,63,51,62,57,50,96,74,50,30.08,30.04,29.96,10,10,10,14,5,21,0.00,3,Rain,194
2013-7-26,77,67,57,66,63,56,100,88,67,29.96,29.90,29.84,10,9,2,22,8,28,0.24,6,Rain-Thunderstorm,219
2013-7-27,60,56,51,57,50,45,100,83,62,29.93,29.89,29.84,10,10,10,14,10,21,0.00,8,,316
2013-7-28,64,58,51,57,53,50,100,86,67,29.98,29.89,29.82,10,9,2,16,7,22,0.17,7,Rain,291
2013-7-29,70,62,53,57,53,50,100,79,60,30.20,30.12,29.99,10,10,10,10,6,18,0.00,5,,308
2013-7-30,73,60,48,63,56,48,100,92,70,30.21,30.17,30.10,10,6,0,10,2,,0.03,2,Fog,178
2013-7-31,77,67,59,67,63,57,100,90,71,30.09,30.01,29.94,10,7,0,16,5,25,0.66,6,Fog-Rain-Thunderstorm,207